Fryeburg, ME

12:26 PM EDT on August 27, 2016 (GMT -0400)
Eastern Slopes Regional

Weather History for KIZG - July, 2014

Change the Weather History Date:

Monday, July 7, 2014

  Actual Average Record
Temperature  
Mean Temperature 70 °F -  
Max Temperature 84 °F 78 °F 96 °F (2010)
Min Temperature 55 °F 52 °F 43 °F (2000)
Cooling Degree Days 4    
Growing Degree Days 20 (Base 50)    
Moisture  
Dew Point 61 °F    
Average Humidity 71    
Maximum Humidity 93    
Minimum Humidity 46    
Precipitation  
Precipitation 0.13 in - - ()
Sea Level Pressure  
Sea Level Pressure 29.74 in    
Wind  
Wind Speed 4 mph (SW)    
Max Wind Speed 10 mph    
Max Gust Speed 16 mph    
Visibility 10 miles    
Events Rain    
Averages and records for this station are not official NWS values.
T = Trace of Precipitation, MM = Missing Value Source: NWS Daily Summary

Daily Weather History Graph

Daily Weather History Graph

Search for Another Location

Airport or City:

Trip Planner

Search our weather history database for the weather conditions in past years. The results will help you decide how hot, cold, wet, or windy it might be!

Date:

Astronomy

Jul. 07, 2014 Rise Set
Actual Time 5:08 AM EDT 8:28 PM EDT
Civil Twilight 4:32 AM EDT 9:04 PM EDT
Nautical Twilight 3:46 AM EDT 9:50 PM EDT
Astronomical Twilight 2:48 AM EDT 10:48 PM EDT
Moon 3:22 PM EDT (7/7) 1:06 AM EDT (7/7)
Length of Visible Light 16h 31m
Length of Day
15h 20m
Waxing Gibbous, 72% of the Moon is Illuminated
Jul 7
Waxing Gibbous
Jul 12
Full
Jul 18
Last Quarter
Jul 26
New
Aug 3
First Quarter

Hourly Weather History & Observations

Time (EDT) Temp. Heat Index Dew Point Humidity Pressure Visibility Wind Dir Wind Speed Gust Speed Precip Events Conditions
12:54 AM 68.0 °F - 53.1 °F 59% 29.82 in 10.0 mi WSW 4.6 mph - N/A   Clear
1:54 AM 63.0 °F - 55.0 °F 75% 29.82 in 10.0 mi West 4.6 mph - N/A   Clear
2:54 AM 64.9 °F - 53.1 °F 65% 29.81 in 10.0 mi Calm Calm - N/A   Partly Cloudy
3:54 AM 57.9 °F - 54.0 °F 87% 29.81 in 10.0 mi Calm Calm - N/A   Clear
4:54 AM 55.9 °F - 54.0 °F 93% 29.80 in 10.0 mi Calm Calm - N/A   Clear
5:54 AM 55.9 °F - 54.0 °F 93% 29.80 in 10.0 mi Calm Calm - N/A   Clear
6:54 AM 64.0 °F - 57.0 °F 78% 29.81 in 10.0 mi Calm Calm - N/A   Clear
7:54 AM 70.0 °F - 57.9 °F 65% 29.81 in 10.0 mi Calm Calm - N/A   Clear
8:54 AM 73.9 °F - 55.0 °F 52% 29.79 in 10.0 mi WSW 6.9 mph - N/A   Clear
9:54 AM 77.0 °F - 57.0 °F 50% 29.78 in 10.0 mi SSW 5.8 mph - N/A   Clear
10:54 AM 79.0 °F - 57.9 °F 48% 29.75 in 10.0 mi WSW 10.4 mph - N/A   Clear
11:54 AM 79.0 °F - 57.9 °F 48% 29.74 in 10.0 mi WSW 9.2 mph - N/A   Clear
12:54 PM 84.0 °F 84.4 °F 61.0 °F 46% 29.71 in 10.0 mi South 10.4 mph 16.1 mph N/A   Scattered Clouds
1:54 PM 81.0 °F 81.7 °F 61.0 °F 50% 29.70 in 10.0 mi SSW 9.2 mph 16.1 mph N/A   Clear
2:54 PM 84.9 °F 85.9 °F 63.0 °F 48% 29.68 in 10.0 mi SW 8.1 mph - N/A   Clear
3:54 PM 75.9 °F - 64.0 °F 67% 29.70 in 4.0 mi Variable 6.9 mph - 0.02 in Rain Rain
4:54 PM 75.0 °F - 69.1 °F 82% 29.68 in 10.0 mi Variable 3.5 mph - 0.02 in   Scattered Clouds
5:54 PM 77.0 °F - 69.1 °F 76% 29.67 in 10.0 mi Variable 4.6 mph - N/A   Mostly Cloudy
6:54 PM 75.9 °F - 69.1 °F 79% 29.68 in 10.0 mi Variable 3.5 mph - N/A   Clear
7:54 PM 75.0 °F - 69.1 °F 82% 29.68 in 10.0 mi South 4.6 mph - N/A   Mostly Cloudy
8:54 PM 72.0 °F - 70.0 °F 93% 29.68 in 10.0 mi SE 3.5 mph - N/A   Mostly Cloudy
9:54 PM 72.0 °F - 70.0 °F 93% 29.69 in 6.0 mi Calm Calm - 0.02 in Rain Light Rain
10:54 PM 71.1 °F - 69.1 °F 93% 29.69 in 10.0 mi SSW 5.8 mph - 0.07 in   Scattered Clouds
11:54 PM 70.0 °F - 68.0 °F 93% 29.70 in 10.0 mi Variable 4.6 mph - N/A   Clear